DW7126 Lourinha PT current weather conditions

sailwx.info

Wind from 027 at 8 knots gusting 13

Air temperature 26.1° C
Dewpoint 12.5° C

Last reported at 2015-May-26 14:55 UTC.
Time now 2015-May-26 15:54 UTC

Location: N 39°14' W 009°18'.
View on Google Maps.

See reports from other nearby stations

  
Tides and Currents Weather Stations Pressure Air Temp Water Temp Dewpoint Dewpoint Depression Visibility Wind Speed Wind Dir Waves Ship Positions
date/time (UTC)wind fromknots sea level pressurealtimeterstation pressurevisibilityair tempwater tempwave heightnotes
2015-May-26 14:55 027 8 gusting 13 26.1
2015-May-26 14:50 018 7 gusting 13 26.1
2015-May-26 14:45 013 7 gusting 13 26.7
2015-May-26 14:40 360 6 gusting 13 26.7
2015-May-26 14:35 355 7 gusting 12 26.7
2015-May-26 14:30 344 8 gusting 12 26.7
2015-May-26 14:25 316 6 gusting 10 26.7
2015-May-26 14:20 327 2 gusting 9 27.2
2015-May-26 14:15 360 5 gusting 10 26.7
2015-May-26 14:10 005 6 gusting 11 26.1
2015-May-26 14:05 355 8 gusting 11 25.6
2015-May-26 14:00 019 6 gusting 10 25.6
2015-May-26 13:55 033 6 gusting 10 25.6
2015-May-26 13:50 005 4 gusting 9 26.1
2015-May-26 13:45 016 6 gusting 8 25.6
2015-May-26 13:40 348 4 gusting 9 25.6
2015-May-26 13:35 355 5 gusting 10 25.0
2015-May-26 13:30 321 6 gusting 12 25.0
2015-May-26 13:25 013 6 gusting 12 25.6
2015-May-26 13:20 009 6 gusting 10 25.0
2015-May-26 13:15 360 5 gusting 10 25.0
2015-May-26 13:10 011 6 gusting 10 25.0
2015-May-26 13:05 336 3 gusting 8 24.4
2015-May-26 13:00 296 6 gusting 8 23.9
2015-May-26 12:55 276 5 gusting 8 22.8
2015-May-26 12:50 305 6 gusting 8 22.8
2015-May-26 12:45 311 6 gusting 8 22.2
2015-May-26 12:40 297 4 gusting 7 22.8
2015-May-26 12:35 297 3 gusting 7 22.2
2015-May-26 12:30 290 5 gusting 9 21.7
2015-May-26 12:25 284 4 gusting 10 21.7
2015-May-26 12:20 311 5 gusting 10 21.1
2015-May-26 12:15 328 6 gusting 10 21.1
2015-May-26 12:10 313 6 gusting 9 21.1
2015-May-26 12:05 304 6 gusting 9 20.6
2015-May-26 12:00 308 6 gusting 8 21.7
2015-May-26 11:55 320 5 gusting 7 21.7
2015-May-26 11:50 292 6 gusting 7 21.1
2015-May-26 11:45 292 4 gusting 7 21.1
2015-May-26 11:40 274 4 gusting 6 21.1
2015-May-26 11:35 284 2 gusting 6 20.6
2015-May-26 11:30 305 2 gusting 6 21.1
2015-May-26 11:25 284 4 gusting 6 20.6
2015-May-26 11:20 306 1 gusting 6 20.6
2015-May-26 11:15 306 2 gusting 6 20.0
2015-May-26 11:10 327 4 gusting 6 20.0
2015-May-26 11:05 304 3 gusting 7 20.0
2015-May-26 11:00 315 5 gusting 7 20.0
2015-May-26 10:55 306 4 gusting 7 20.0
2015-May-26 10:50 332 5 gusting 8 20.0
2015-May-26 10:45 345 4 gusting 9 20.6
2015-May-26 10:40 286 6 gusting 9 20.6
2015-May-26 10:35 281 4 gusting 6 21.7
2015-May-26 10:30 311 2 gusting 6 22.2
2015-May-26 10:25 282 3 gusting 6 22.2
2015-May-26 10:20 349 4 gusting 6 22.8
2015-May-26 10:15 360 3 gusting 5 22.8
2015-May-26 10:10 331 2 gusting 5 22.8
2015-May-26 10:05 325 0 gusting 4 22.8
2015-May-26 10:00 328 1 gusting 4 22.8
2015-May-26 09:55 327 22.2
2015-May-26 09:50 331 22.2
2015-May-26 09:45 332 0 gusting 5 21.7
2015-May-26 09:40 306 3 gusting 5 21.7
2015-May-26 09:35 032 0 gusting 3 22.2
2015-May-26 09:30 036 21.7
2015-May-26 09:25 036 21.7
2015-May-26 09:20 045 21.1
2015-May-26 09:15 036 0 gusting 3 21.7
2015-May-26 09:10 042 0 gusting 5 21.1
2015-May-26 09:05 042 20.6
2015-May-26 09:00 030 20.6
2015-May-26 08:55 051 0 gusting 3 20.6
2015-May-26 08:50 057 20.0
2015-May-26 08:45 035 1 gusting 5 20.0
2015-May-26 08:40 050 0 gusting 2 19.4
2015-May-26 08:35 056 18.9
2015-May-26 08:30 055 18.9
2015-May-26 08:25 056 17.8
2015-May-26 08:20 055 17.8
2015-May-26 08:15 055 17.2
2015-May-26 08:10 036 16.7
2015-May-26 08:05 036 16.7
2015-May-26 08:00 036 16.1
2015-May-26 07:55 036 0 gusting 1 16.1
2015-May-26 07:50 036 16.1
2015-May-26 07:45 036 15.6
2015-May-26 07:40 036 1 gusting 3 15.6
2015-May-26 07:35 035 0 gusting 2 15.6
2015-May-26 07:30 030 0 gusting 3 15.0
2015-May-26 07:25 021 0 gusting 3 15.0
2015-May-26 07:20 019 15.0
2015-May-26 07:15 019 14.4
2015-May-26 07:10 019 14.4
2015-May-26 07:05 019 13.9
2015-May-26 07:00 019 13.9
2015-May-26 06:55 019 14.4
2015-May-26 06:50 019 14.4
2015-May-26 06:45 019 13.9
2015-May-26 06:40 019 13.9
2015-May-26 06:35 019 13.9
2015-May-26 06:30 019 13.9
2015-May-26 06:25 019 13.3
2015-May-26 06:20 019 13.3
2015-May-26 06:15 019 12.8
2015-May-26 06:10 019 12.8
2015-May-26 06:05 019 13.3
2015-May-26 06:00 019 13.3
2015-May-26 05:55 019 13.3
2015-May-26 05:50 019 13.3
2015-May-26 05:45 019 13.3
2015-May-26 05:40 019 13.3
2015-May-26 05:35 019 13.3
2015-May-26 05:30 019 12.8
2015-May-26 05:25 019 12.8
2015-May-26 05:20 019 12.8
2015-May-26 05:15 018 12.8
2015-May-26 05:10 018 13.3
2015-May-26 05:05 018 13.3
2015-May-26 05:00 018 13.3
2015-May-26 04:55 018 13.3
2015-May-26 04:50 017 13.3
2015-May-26 04:45 017 13.3
2015-May-26 04:40 017 13.3
2015-May-26 04:35 017 13.3
2015-May-26 04:30 017 13.3
2015-May-26 04:25 017 13.3
2015-May-26 04:20 017 13.9
2015-May-26 04:15 017 13.9
2015-May-26 04:10 017 13.9
2015-May-26 04:05 017 13.9
2015-May-26 04:00 017 13.9
2015-May-26 03:55 017 13.9
2015-May-26 03:50 017 13.3
2015-May-26 03:45 017 13.3
2015-May-26 03:40 017 13.9
2015-May-26 03:35 017 13.9
2015-May-26 03:30 017 13.9
2015-May-26 03:25 017 13.9
2015-May-26 03:20 017 13.9
2015-May-26 03:15 017 13.9
2015-May-26 03:10 017 13.3
2015-May-26 03:05 017 13.9
2015-May-26 03:00 022 13.9
2015-May-26 02:55 022 13.9
2015-May-26 02:50 022 13.9
2015-May-26 02:45 022 13.9
2015-May-26 02:40 022 13.9
2015-May-26 02:35 022 13.9
2015-May-26 02:30 022 13.9
2015-May-26 02:25 022 13.9
2015-May-26 02:20 022 14.4
2015-May-26 02:15 022 14.4
2015-May-26 02:10 022 14.4
2015-May-26 02:05 022 14.4
2015-May-26 02:00 022 14.4
2015-May-26 01:55 022 14.4
2015-May-26 01:50 022 14.4
2015-May-26 01:45 022 14.4
2015-May-26 01:40 024 14.4
2015-May-26 01:35 025 15.0
2015-May-26 01:30 018 15.0
2015-May-26 01:25 017 15.0
2015-May-26 01:20 017 15.0
2015-May-26 01:15 017 15.0
2015-May-26 01:10 017 15.0
2015-May-26 01:05 017 15.0
2015-May-26 01:00 017 15.0
2015-May-26 00:55 017 15.0
2015-May-26 00:50 017 15.0
2015-May-26 00:45 017 15.0
2015-May-26 00:40 017 15.0
2015-May-26 00:35 017 15.0
2015-May-26 00:30 017 15.0
2015-May-26 00:25 017 15.0
2015-May-26 00:20 017 15.6
2015-May-26 00:15 017 15.6
2015-May-26 00:10 017 15.6
2015-May-26 00:05 017 15.6
2015-May-26 00:00 017 2 gusting 6 15.6
2015-May-25 23:55 052 2 gusting 6 15.6
2015-May-25 23:50 017 4 gusting 7 15.6
2015-May-25 23:45 024 0 gusting 7 15.6
2015-May-25 23:40 024 15.6
2015-May-25 23:35 026 0 gusting 5 15.6
2015-May-25 23:30 033 15.6
2015-May-25 23:25 033 15.6
2015-May-25 23:20 029 2 gusting 5 16.1
2015-May-25 23:15 032 2 gusting 7 16.1
2015-May-25 23:10 025 5 gusting 7 16.1
2015-May-25 23:05 347 1 gusting 2 16.1
2015-May-25 23:00 346 0 gusting 3 16.1
2015-May-25 22:55 333 1 gusting 4 16.1
2015-May-25 22:50 333 3 gusting 4 16.1
2015-May-25 22:45 315 0 gusting 4 16.1
2015-May-25 22:40 286 16.1
2015-May-25 22:35 261 16.1
2015-May-25 22:30 259 0 gusting 2 16.7
2015-May-25 22:25 260 1 gusting 2 16.7
2015-May-25 22:20 269 16.7
2015-May-25 22:15 270 16.7
2015-May-25 22:10 273 16.7
2015-May-25 22:05 274 16.7
2015-May-25 22:00 275 17.2
2015-May-25 21:55 280 17.2
2015-May-25 21:50 285 17.2
2015-May-25 21:45 286 17.2
2015-May-25 21:40 286 17.2
2015-May-25 21:35 286 17.2
2015-May-25 21:30 287 17.8
2015-May-25 21:25 287 17.8
2015-May-25 21:20 288 18.3
2015-May-25 21:15 286 18.3
2015-May-25 21:10 288 18.3
2015-May-25 21:05 290 18.3
2015-May-25 21:00 290 18.3
2015-May-25 20:55 292 18.3
2015-May-25 20:50 294 18.3
2015-May-25 20:45 292 18.3
2015-May-25 20:40 294 18.3
2015-May-25 20:35 308 18.3
2015-May-25 20:30 310 17.8
2015-May-25 20:25 311 18.3
2015-May-25 20:20 334 18.3
2015-May-25 20:15 335 18.3
2015-May-25 20:10 342 0 gusting 1 18.3
2015-May-25 20:05 344 0 gusting 6 18.9
2015-May-25 20:00 351 1 gusting 7 19.4
2015-May-25 19:55 041 3 gusting 11 19.4
2015-May-25 19:50 026 6 gusting 11 19.4
2015-May-25 19:45 063 4 gusting 11 19.4
2015-May-25 19:40 022 5 gusting 11 20.0
2015-May-25 19:35 046 6 gusting 10 20.0
2015-May-25 19:30 030 5 gusting 9 20.0
2015-May-25 19:25 013 1 gusting 8 20.6
2015-May-25 19:20 022 0 gusting 5 21.1
2015-May-25 19:15 026 0 gusting 5 21.1
2015-May-25 19:10 344 0 gusting 3 21.1
2015-May-25 19:05 344 1 gusting 5 21.1
2015-May-25 19:00 010 0 gusting 5 21.1
2015-May-25 18:55 360 1 gusting 6 21.1
2015-May-25 18:50 028 3 gusting 7 21.7
2015-May-25 18:45 355 3 gusting 7 21.7
2015-May-25 18:40 005 5 gusting 8 21.7
2015-May-25 18:35 360 3 gusting 7 21.7
2015-May-25 18:30 018 4 gusting 9 21.7
2015-May-25 18:25 342 4 gusting 9 21.7
2015-May-25 18:20 029 3 gusting 11 21.7
2015-May-25 18:15 017 6 gusting 11 21.7
2015-May-25 18:10 355 3 gusting 9 22.2
2015-May-25 18:05 021 3 gusting 8 22.2
2015-May-25 18:00 011 5 gusting 8 22.2
2015-May-25 17:55 015 4 gusting 9 22.8
2015-May-25 17:50 020 6 gusting 9 22.2
2015-May-25 17:45 347 3 gusting 8 22.2
2015-May-25 17:40 011 4 gusting 10 22.8
2015-May-25 17:35 018 5 gusting 10 23.3
2015-May-25 17:30 014 6 gusting 10 23.3
2015-May-25 17:25 024 4 gusting 9 23.3
2015-May-25 17:20 355 5 gusting 12 23.3
2015-May-25 17:15 010 7 gusting 17 23.3
2015-May-25 17:10 005 9 gusting 17 23.3
2015-May-25 17:05 019 11 gusting 15 23.3
2015-May-25 17:00 005 7 gusting 14 23.9
2015-May-25 16:55 059 10 gusting 14 23.3
2015-May-25 16:50 010 6 gusting 13 23.9
2015-May-25 16:45 005 7 gusting 12 23.3
2015-May-25 16:40 360 7 gusting 13 23.3
2015-May-25 16:35 026 8 gusting 13 23.9
2015-May-25 16:30 037 8 gusting 13 23.9
2015-May-25 16:25 015 6 gusting 11 23.9
2015-May-25 16:20 017 8 gusting 12 23.9
2015-May-25 16:15 040 8 gusting 12 23.9
2015-May-25 16:10 360 7 gusting 12 23.9
2015-May-25 16:05 016 6 gusting 13 23.9
2015-May-25 16:00 046 10 gusting 13 23.3
2015-May-25 15:55 019 7 gusting 13 23.3
2015-May-25 15:50 350 7 gusting 13 23.3
2015-May-25 15:45 005 8 gusting 13 22.8
2015-May-25 15:40 023 8 gusting 13 23.3
2015-May-25 15:35 053 8 gusting 13 22.8
2015-May-25 15:30 355 8 gusting 13 22.8
2015-May-25 15:25 360 8 gusting 13 22.8
2015-May-25 15:20 005 8 gusting 12 22.8
2015-May-25 15:15 010 7 gusting 13 22.8
2015-May-25 15:10 020 7 gusting 13 23.3
2015-May-25 15:05 017 6 gusting 13 23.3
2015-May-25 15:00 338 7 gusting 13 23.3
2015-May-25 14:55 005 5 gusting 13 22.8
2015-May-25 14:50 016 7 gusting 14 23.3
2015-May-25 14:45 322 7 gusting 14 23.3
2015-May-25 14:40 014 8 gusting 12 23.3
2015-May-25 14:35 015 7 gusting 13 22.8
2015-May-25 14:30 005 9 gusting 15 23.3
2015-May-25 14:25 024 7 gusting 15 23.3
2015-May-25 14:20 032 7 gusting 13 23.3
2015-May-25 14:15 026 6 gusting 13 23.3
2015-May-25 14:10 016 6 gusting 13 23.9
2015-May-25 14:05 336 6 gusting 13 23.9
2015-May-25 14:00 351 6 gusting 13 23.3
2015-May-25 13:55 017 7 gusting 13 23.9
2015-May-25 13:50 012 5 gusting 13 24.4
2015-May-25 13:45 348 6 gusting 13 23.9
2015-May-25 13:40 346 8 gusting 14 23.3
2015-May-25 13:35 319 8 gusting 14 23.9
2015-May-25 13:30 333 6 gusting 13 23.9
2015-May-25 13:25 328 6 gusting 13 23.9
2015-May-25 13:20 340 10 gusting 13 23.9
2015-May-25 13:15 310 7 gusting 13 23.9
2015-May-25 13:10 321 8 gusting 13 23.9
2015-May-25 13:05 333 5 gusting 10 24.4
2015-May-25 13:00 360 4 gusting 10 24.4
2015-May-25 12:55 314 6 gusting 12 23.3
2015-May-25 12:50 312 7 gusting 12 23.9
2015-May-25 12:45 331 7 gusting 12 23.9
2015-May-25 12:40 316 8 gusting 13 23.3
2015-May-25 12:35 335 8 gusting 13 22.8
2015-May-25 12:30 342 8 gusting 13 23.3
2015-May-25 12:25 338 8 gusting 11 22.8
2015-May-25 12:20 304 8 gusting 11 23.3
2015-May-25 12:15 319 6 gusting 13 23.3
2015-May-25 12:10 313 7 gusting 13 22.8
2015-May-25 12:05 288 8 gusting 12 22.8
2015-May-25 12:00 321 5 gusting 9 23.3
2015-May-25 11:55 301 5 gusting 9 23.3
2015-May-25 11:50 307 5 gusting 10 23.3
2015-May-25 11:45 288 7 gusting 11 22.8
2015-May-25 11:40 306 8 gusting 11 22.8
2015-May-25 11:35 311 7 gusting 10 22.8
2015-May-25 11:30 291 6 gusting 10 22.8
2015-May-25 11:25 304 6 gusting 11 22.8
2015-May-25 11:20 314 6 gusting 11 22.2
2015-May-25 11:15 303 6 gusting 10 22.8
2015-May-25 11:10 332 6 gusting 10 22.2
2015-May-25 11:05 302 4 gusting 9 22.2
2015-May-25 11:00 321 6 gusting 9 22.8
2015-May-25 10:55 321 5 gusting 9 22.2
2015-May-25 10:50 327 6 gusting 8 22.8
2015-May-25 10:45 329 4 gusting 7 23.3
2015-May-25 10:40 334 4 gusting 7 23.3
2015-May-25 10:35 346 5 gusting 7 23.3
2015-May-25 10:30 331 6 gusting 7 23.9
2015-May-25 10:25 023 3 gusting 6 24.4
2015-May-25 10:20 341 0 gusting 7 24.4
2015-May-25 10:15 061 2 gusting 10 23.9
2015-May-25 10:10 069 6 gusting 10 24.4
2015-May-25 10:05 005 4 gusting 9 23.9
2015-May-25 10:00 071 5 gusting 10 23.9
2015-May-25 09:55 051 6 gusting 10 23.9
2015-May-25 09:50 062 6 gusting 9 24.4
2015-May-25 09:45 021 4 gusting 8 23.9
2015-May-25 09:40 115 0 gusting 10 23.9
2015-May-25 09:35 081 6 gusting 13 23.9
2015-May-25 09:30 093 9 gusting 13 23.3
2015-May-25 09:25 071 7 gusting 14 23.3
2015-May-25 09:20 079 11 gusting 14 23.3
2015-May-25 09:15 094 9 gusting 14 23.3
2015-May-25 09:10 088 9 gusting 14 22.8
2015-May-25 09:05 074 6 gusting 9 22.8
2015-May-25 09:00 114 0 gusting 8 22.8
2015-May-25 08:55 096 5 gusting 8 22.2
2015-May-25 08:50 062 4 gusting 7 22.2
2015-May-25 08:45 071 1 gusting 6 22.2
2015-May-25 08:40 111 3 gusting 6 21.7
2015-May-25 08:35 096 3 gusting 6 21.1
2015-May-25 08:30 086 0 gusting 5 21.1
2015-May-25 08:25 103 0 gusting 4 20.6
2015-May-25 08:20 066 1 gusting 4 20.0
2015-May-25 08:15 069 20.0
2015-May-25 08:10 056 20.0
2015-May-25 08:05 057 0 gusting 4 19.4
2015-May-25 08:00 059 19.4
2015-May-25 07:55 059 3 gusting 6 18.9
2015-May-25 07:50 076 2 gusting 6 18.3
2015-May-25 07:45 045 2 gusting 6 18.3
2015-May-25 07:40 081 0 gusting 6 17.8
2015-May-25 07:35 088 2 gusting 6 16.7
2015-May-25 07:30 084 2 gusting 6 15.6
2015-May-25 07:25 087 0 gusting 4 15.0
2015-May-25 07:20 067 14.4
2015-May-25 07:15 065 14.4
2015-May-25 07:10 065 13.9
2015-May-25 07:06 065 13.9